Regional Weather Roundup
Issued by NWS

Home | Current Version | Previous Version | Text Only | Print | Product List | Glossary Off
Versions: 1 2 3 4 5 6 7 8 9 10 11 12 13 14 15 16 17 18 19 20 21 22 23 24 25 26 27 28 29 30 31 32 33 34 35 36 37 38 39 40 41 42 43 44 45 46 47 48 49 50

000
ASUS45 KTFX 281619
RWRMT
MONTANA HOURLY WEATHER ROUNDUP
NATIONAL WEATHER SERVICE GREAT FALLS MT
919 AM MST WED JAN 28 2015

NOTE: "FAIR" INDICATES FEW OR NO CLOUDS BELOW 12000 FEET WITH NO
SIGNIFICANT WEATHER AND/OR OBSTRUCTIONS TO VISIBILITY.

* THESE STATIONS ARE NOT UNDER NWS QUALITY CONTROL. THEY DO NOT
   REPORT WEATHER SUCH AS PRECIPITATION OR FOG.

MTZ001>007-043-281700-
WEST OF THE DIVIDE
CITY           SKY/WX    TMP DP  RH WIND       PRES   REMARKS
KALISPELL      FOG       12  10  92 CALM      30.25R
MISSOULA       FOG       27  27 100 CALM      30.28R
BUTTE          PTSUNNY   34  27  76 N3        30.22R
MULLAN PASS    FOG       28  27  96 SW5       30.23R VSB M1/4 WCI  22
* ANACONDA     PTCLDY    36  27  70 N/A        N/A
* ESSEX        N/A       26  24  92 SW1        N/A
* EUREKA APT   SUNNY     25  21  85 N3        30.26R
* HAMILTON APT PTSUNNY   39  27  62 S2        30.27R
* LIBBY APT    SUNNY     27  25  92 CALM      30.31R VSB M1/4
* LINCOLN      N/A       35  25  67 S2         N/A
* LOOKOUT PASS N/A       34  30  85 SW1G6      N/A
* POLSON       N/A       33  29  85 S1         N/A
* RONAN APT    PTCLDY    30  30 100 N/A        N/A
* SEELEY LAKE  N/A       18  16  92 N/A        N/A
* THOMP F APT  SUNNY     31  30  96 N/A        N/A
$$

MTZ008-052>055-281700-
SOUTHWEST MONTANA
CITY           SKY/WX    TMP DP  RH WIND       PRES   REMARKS
BOZEMAN        PTSUNNY   36  32  85 S6        30.19R WCI  31
DILLON         CLOUDY    39  30  70 S6        30.19R WCI  35
* W YELLOWSTON CLOUDY    32  31  96 SW2        N/A
* THREE FORKS  PTSUNNY   37  37 100 N/A        N/A
* BOULDER HILL N/A       37  21  52 VRB2       N/A
* MONIDA PASS  N/A       29  29 100 W6         N/A   WCI  23
* RAYNOLDS PAS N/A       31  14  49 SE11       N/A   WCI  22
* WHITEHALL    N/A       39  29  67 W6         N/A   WCI  35
* WISE RIVER   N/A       35  26  70 W9         N/A   WCI  28
$$

MTZ009>010-012-014-046-048-049-054-281700-
EAST SLOPES AND CENTRAL MONTANA
CITY           SKY/WX    TMP DP  RH WIND       PRES   REMARKS
CUT BANK       PTCLDY    28  27  96 NW7       30.17R WCI  21
GREAT FALLS    SUNNY     37  27  67 NW3       30.16R
HELENA         PTCLDY    45  27  49 W20       30.18R
MALMSTROM AFB  SUNNY     39  28  65 W7        30.17R WCI  34
* CONRAD       SUNNY     34  25  70 CALM       N/A
* DEARBORN     N/A       40  26  57 S4         N/A
* EAST GLACIER N/A       35  23  62 W12G18     N/A   WCI  27
* MONARCH      N/A       35  18  50 N17        N/A   WCI  25
* PENDROY      N/A       32  28  85 N8         N/A   WCI  25
* ROGERS PASS  N/A       34  25  70 SE12G19    N/A   WCI  25
* SWEET GRASS  N/A       31  31 100 N8         N/A   WCI  24
* WHITE SULPH  N/A       39  25  57 S1G9       N/A
$$

MTZ011-013-016-021-035-040-045-047-050-051-281700-
NORTH CENTRAL MONTANA
CITY           SKY/WX    TMP DP  RH WIND       PRES   REMARKS
HAVRE          FOG       32  28  85 SW7       30.15R WCI  25
LEWISTOWN      PTCLDY    37  27  67 W14       30.11R WCI  28
* N BAR RANCH  SUNNY     41  23  49 NW21G28   30.06R
* CHINOOK      PTCLDY    34  30  85 W10       30.14R WCI  26
* MALTA APT    PTCLDY    36  28  73 W9         N/A   WCI  29
* CHESTER      N/A       32  29  89 N2         N/A
* DENTON       N/A       38  24  57 NW11       N/A   WCI  31
* GEYSER       N/A       39  25  57 W14G19     N/A   WCI  31
* JUDITH GAP   N/A       36  21  54 NW11G16    N/A   WCI  28
* LOMA         N/A       36  30  79 VRB2       N/A
$$

MTZ017>020-022>027-061-062-281700-
NORTHEAST MONTANA
CITY           SKY/WX    TMP DP  RH WIND       PRES   REMARKS
GLASGOW        FOG       34  30  85 NW20G29   29.99R WCI  23
GLENDIVE       CLOUDY    43  30  60 W18G26    29.91R
JORDAN         PTSUNNY   37  30  76 NW21G30   29.98R WCI  26
SIDNEY         CLOUDY    39  32  76 NW10G16   29.91R WCI  32
WOLF POINT     CLOUDY    36  30  79 NW14G25   29.96R WCI  27
* BEAVER HILL  N/A       41  30  65 W14G21     N/A
* CIRCLE       N/A       38  32  79 W12G25     N/A   WCI  30
* LINDSAY DVD  N/A       38  30  73 W22G27     N/A   WCI  27
* NAVAJO       N/A       28  28 100 N16G26     N/A   WCI  16
* PLENTYWOOD A PTSUNNY   28  28 100 N16G24    29.90R VSB 1/2  WCI  16
* POPLAR APT   PTCLDY    34  30  85 N/A       29.96R VSB 3
* SACO         N/A       34  31  89 NW14G19    N/A   WCI  24
* SCOBEY APT   PTCLDY    28  25  89 NW22G32    N/A   WCI  14
$$

MTZ028>042-056>058-281700-
SOUTHCENTRAL AND SOUTHEAST MONTANA
CITY           SKY/WX    TMP DP  RH WIND       PRES   REMARKS
BAKER          CLOUDY    39  30  70 W15       29.88R WCI  31
BILLINGS       PTSUNNY   48  27  44 NW15      30.07R
LIVINGSTON     PTSUNNY   46  32  58 W9        30.14R
MILES CITY     CLOUDY    43  30  60 NW15      29.94R
* BIG TIMBER A CLOUDY    46  27  48 SW23G32   30.10R
* FORSYTH APT  CLOUDY    45  30  56 W9        30.00R
* LAUREL APT   PTSUNNY   52  28  40 W5         N/A
* ROUNDUP APT  CLOUDY    48  23  37 W17G26     N/A
* ALZADA       N/A       45  29  54 W9         N/A
* HYSHAM       N/A       46  27  48 W11G17     N/A
* REED POINT   N/A       50  29  44 W14G19     N/A
* ROSCOE HILL  N/A       43  30  60 W2         N/A
$$

REGIONAL REPORTS...DAKOTAS
CITY           SKY/WX    TMP DP  RH WIND       PRES   REMARKS
WILLISTON      FOG       30  30 100 N14       29.86R VSB 1 3/4 WCI  19
DICKINSON      CLOUDY    43  30  60 W18       29.78R
BEACH          SUNNY     41  32  70 W22       29.85R
CROSBY         FOG       28  28 100 N10       29.89R VSB 3/4  WCI  19
TIOGA          FOG       27  27 100 N14       29.85R VSB 1/2  WCI  16
WATFORD CITY   SUNNY     37  32  82 NW12      29.80R WCI  29
BISMARCK       PTSUNNY   34  30  85 W5        29.76R WCI  29
GRAND FORKS    FOG       34  32  92 S10       29.78F VSB 2    WCI  26
FARGO          FOG       34  30  85 S16G30    29.78F WCI  24
BUFFALO SD     PTSUNNY   45  30  56 W15       29.80R
RAPID CITY     CLOUDY    55  28  35 NW21      29.84R
$$

REGIONAL REPORTS...WYOMING/IDAHO/WASHINGTON
CITY           SKY/WX    TMP DP  RH WIND       PRES   REMARKS
GILLETTE       CLOUDY    46  30  54 W14       29.97S
SHERIDAN       LGT RAIN  48  36  63 NW21G32   30.04R
CODY           CLOUDY    39  39 100 CALM      30.12R
YELLOWSTONE LA PTSUNNY   28  28 100 CALM      30.21R
SALMON         CLOUDY   N/A N/A N/A CALM      30.30R VSB 3
MULLAN PASS    FOG       28  27  96 SW5       30.23S VSB M1/4 WCI  22
SAND POINT     CLOUDY    34  34 100 CALM      30.33R
SPOKANE        FOG       34  34 100 NE3       30.32R VSB M1/4
$$

REGIONAL REPORTS...ALBERTA
CITY           SKY/WX    TMP DP  RH WIND       PRES   REMARKS
CALGARY        PTSUNNY   34  30  85 S2        30.18R
LETHBRIDGE     FOG       34  32  92 W7        30.20R WCI  28
MEDICINE HAT   FOG       30  30 100 W7        30.19R VSB 2 1/2 WCI  23
EDMONTON       SUNNY     28  25  89 NW8       30.16R WCI  20
WATERTON GATE  N/A       25  23  92 NE2        N/A
CARDSTON       N/A       32  30  92 SW1        N/A
MILK RIVER     N/A       32  34 N/A NW6        N/A   WCI  26
$$

REGIONAL REPORTS...SASKATCHEWAN
CITY           SKY/WX    TMP DP  RH WIND       PRES   REMARKS
SWIFT CURRENT  HVY SNOW  27  27 100 NW14G21   30.04R VSB M1/4 WCI  16
MOOSE JAW      FOG       28  27  96 NW14      30.02R VSB 2 1/2 WCI  17
REGINA         LGT SNOW  25  25 100 NW10      29.99R VSB 1    WCI  15
VAL MARIE      N/A       32  30  92 N22G30     N/A   WCI  19
ASSINIBOIA     N/A       28  27  96 NW15       N/A   WCI  16
CORONACH       N/A       30  28  92 NW24G32    N/A   WCI  16

$$




USA.gov is the U.S. government's official web portal to all federal, state and local government web resources and services.